Budapest Ferihegy, Hungary

6:23 AM CEST on September 20, 2017 (GMT +0200)
Ferihegy

Weather History for LHBP - November, 2012

Change the Weather History Date:

Tuesday, November 27, 2012

  Actual Average Record
Temperature  
Mean Temperature 50 °F -  
Max Temperature 59 °F 36 °F 59 °F (2012)
Min Temperature 41 °F 24 °F 17 °F (1999)
Degree Days  
Heating Degree Days 15    
Moisture  
Dew Point 43 °F    
Average Humidity 80    
Maximum Humidity 100    
Minimum Humidity 55    
Precipitation  
Precipitation 0.00 in - - ()
Sea Level Pressure  
Sea Level Pressure 29.85 in    
Wind  
Wind Speed 7 mph ()    
Max Wind Speed 17 mph    
Max Gust Speed 23 mph    
Visibility 2.8 miles    
Events      
Averages and records for this station are not official NWS values.
T = Trace of Precipitation, MM = Missing Value Source: Averaged Metar Reports

Daily Weather History Graph

Daily Weather History Graph

Search for Another Location

Airport or City:

Trip Planner

Search our weather history database for the weather conditions in past years. The results will help you decide how hot, cold, wet, or windy it might be!

Date:

Astronomy

Nov. 27, 2012 Rise Set
Actual Time 7:04 AM CET 3:56 PM CET
Civil Twilight 6:30 AM CET 4:30 PM CET
Nautical Twilight 5:51 AM CET 5:09 PM CET
Astronomical Twilight 5:14 AM CET 5:45 PM CET
Moon 3:17 PM CET (11/27) 5:50 AM CET (11/27)
Length of Visible Light 10h 00m
Length of Day
8h 51m
Waxing Gibbous, 99% of the Moon is Illuminated
Nov 27
Waxing Gibbous
Nov 28
Full
Dec 6
Last Quarter
Dec 13
New
Dec 20
First Quarter

Hourly Weather History & Observations

Time (CET) Temp. Windchill Dew Point Humidity Pressure Visibility Wind Dir Wind Speed Gust Speed Precip Events Conditions
12:00 AM 48.2 °F - 46.4 °F 93% 29.95 in 2.8 mi East 8.1 mph - N/A   Mist
12:30 AM 46.4 °F 45.2 °F 44.6 °F 93% 29.92 in 2.8 mi Variable 3.5 mph - N/A   Mist
1:00 AM 44.6 °F 41.4 °F 42.8 °F 93% 29.92 in 2.8 mi ESE 5.8 mph - N/A   Mist
1:30 AM 44.6 °F 43.1 °F 42.8 °F 93% 29.92 in 2.8 mi Variable 3.5 mph - N/A   Mist
2:00 AM 42.8 °F 39.3 °F 42.8 °F 100% 29.92 in 2.8 mi East 5.8 mph - N/A   Mist
2:30 AM 42.8 °F 38.0 °F 41.0 °F 93% 29.89 in 2.8 mi East 8.1 mph - N/A   Mist
3:00 AM 44.6 °F 39.2 °F 42.8 °F 93% 29.89 in - East 10.4 mph - N/A   Clear
3:30 AM 42.8 °F 38.6 °F 41.0 °F 93% 29.89 in - ESE 6.9 mph - N/A   Clear
4:00 AM 42.8 °F 40.1 °F 41.0 °F 93% 29.89 in - East 4.6 mph - N/A   Clear
4:30 AM 41.0 °F 38.0 °F 41.0 °F 100% 29.86 in - ESE 4.6 mph - N/A   Clear
5:00 AM 41.0 °F - 41.0 °F 100% 29.86 in - Variable 1.2 mph - N/A   Clear
5:30 AM 41.0 °F 37.1 °F 39.2 °F 93% 29.86 in - East 5.8 mph - N/A   Clear
6:00 AM 41.0 °F 38.0 °F 39.2 °F 93% 29.86 in - ESE 4.6 mph - N/A   Clear
6:30 AM 41.0 °F 38.0 °F 39.2 °F 93% 29.86 in - ENE 4.6 mph - N/A   Clear
7:00 AM 42.8 °F 38.0 °F 41.0 °F 93% 29.86 in - East 8.1 mph - N/A   Clear
7:30 AM 44.6 °F 41.4 °F 41.0 °F 87% 29.86 in - East 5.8 mph - N/A   Clear
8:00 AM 44.6 °F 40.7 °F 41.0 °F 87% 29.89 in - East 6.9 mph - N/A   Clear
8:30 AM 46.4 °F 42.9 °F 42.8 °F 87% 29.89 in - East 6.9 mph - N/A   Clear
9:00 AM 50.0 °F - 44.6 °F 82% 29.86 in - SE 9.2 mph - N/A   Clear
9:30 AM 51.8 °F - 44.6 °F 76% 29.86 in - SE 10.4 mph - N/A   Clear
10:00 AM 53.6 °F - 44.6 °F 72% 29.89 in - SE 8.1 mph - N/A   Clear
10:30 AM 57.2 °F - 46.4 °F 67% 29.86 in - SSE 10.4 mph - N/A   Clear
11:00 AM 57.2 °F - 46.4 °F 67% 29.86 in - South 15.0 mph - N/A   Clear
11:30 AM 59.0 °F - 46.4 °F 63% 29.86 in - South 17.3 mph - N/A   Clear
12:00 PM 59.0 °F - 42.8 °F 55% 29.86 in - South 11.5 mph 23.0 mph N/A   Clear
12:30 PM 59.0 °F - 42.8 °F 55% 29.83 in - South 11.5 mph - N/A   Clear
1:00 PM 59.0 °F - 42.8 °F 55% 29.83 in - South 15.0 mph - N/A   Clear
1:30 PM 59.0 °F - 42.8 °F 55% 29.83 in - South 10.4 mph - N/A   Clear
2:00 PM 57.2 °F - 44.6 °F 63% 29.83 in - South 11.5 mph - N/A   Clear
2:30 PM 59.0 °F - 44.6 °F 59% 29.80 in - South 13.8 mph - N/A   Clear
3:00 PM 57.2 °F - 44.6 °F 63% 29.83 in - South 13.8 mph - N/A   Clear
3:30 PM 57.2 °F - 44.6 °F 63% 29.83 in - South 11.5 mph - N/A   Clear
4:00 PM 55.4 °F - 44.6 °F 67% 29.83 in - South 11.5 mph - N/A   Clear
4:30 PM 53.6 °F - 44.6 °F 72% 29.83 in - South 11.5 mph - N/A   Clear
5:00 PM 53.6 °F - 42.8 °F 67% 29.83 in - South 11.5 mph - N/A   Clear
5:30 PM 51.8 °F - 42.8 °F 71% 29.83 in - SSE 10.4 mph - N/A   Clear
6:00 PM 51.8 °F - 42.8 °F 71% 29.83 in - SSE 9.2 mph - N/A   Clear
6:30 PM 50.0 °F - 42.8 °F 76% 29.83 in - SSE 9.2 mph - N/A   Clear
7:00 PM 50.0 °F - 44.6 °F 82% 29.83 in - SE 9.2 mph - N/A   Clear
7:30 PM 48.2 °F - 44.6 °F 87% 29.83 in - SE 9.2 mph - N/A   Clear
8:00 PM 46.4 °F 42.4 °F 42.8 °F 87% 29.83 in - SE 8.1 mph - N/A   Clear
8:30 PM 48.2 °F - 44.6 °F 87% 29.83 in - SE 8.1 mph - N/A   Clear
9:00 PM 48.2 °F - 42.8 °F 82% 29.83 in - SE 9.2 mph - N/A   Clear
9:30 PM 46.4 °F 42.4 °F 42.8 °F 87% 29.83 in - SE 8.1 mph - N/A   Clear
10:00 PM 46.4 °F 41.9 °F 42.8 °F 87% 29.80 in - SE 9.2 mph - N/A   Clear
10:30 PM 44.6 °F 40.7 °F 41.0 °F 87% 29.80 in - SE 6.9 mph - N/A   Clear
11:00 PM 44.6 °F 42.2 °F 41.0 °F 87% 29.80 in - ESE 4.6 mph - N/A   Clear
11:30 PM 44.6 °F 40.7 °F 41.0 °F 87% 29.80 in - East 6.9 mph - N/A   Clear